Time,TemperatureF,DewpointF,PressureIn,WindDirection,WindDirectionDegrees,WindSpeedMPH,WindSpeedGustMPH,Humidity,HourlyPrecipIn,Conditions,Clouds,dailyrainin,SolarRadiationWatts/m^2,SoftwareType,DateUTC
2013-01-22 00:02:00,-12.0,-21.0,-100.00,West,264,5.0,12.0,64,0.00,,,0.00,1.000000,,2013-01-22 06:02:00,
2013-01-22 00:12:00,-12.0,-21.0,-100.00,West,264,5.0,12.0,64,0.00,,,0.00,1.000000,,2013-01-22 06:12:00,
2013-01-22 00:22:00,-12.0,-21.0,-100.00,West,264,5.0,12.0,64,0.00,,,0.00,1.000000,,2013-01-22 06:22:00,
2013-01-22 00:32:00,-12.0,-21.0,-100.00,West,264,5.0,12.0,64,0.00,,,0.00,1.000000,,2013-01-22 06:32:00,
2013-01-22 00:53:00,-13.0,-22.0,-100.00,West,277,5.0,13.0,64,0.00,,,0.00,1.000000,,2013-01-22 06:53:00,
2013-01-22 01:02:00,-13.0,-22.0,-100.00,West,277,5.0,13.0,64,0.00,,,0.00,1.000000,,2013-01-22 07:02:00,
2013-01-22 01:12:00,-13.0,-22.0,-100.00,West,277,5.0,13.0,64,0.00,,,0.00,1.000000,,2013-01-22 07:12:00,
2013-01-22 01:22:00,-13.0,-22.0,-100.00,West,277,5.0,13.0,64,0.00,,,0.00,1.000000,,2013-01-22 07:22:00,
2013-01-22 01:32:00,-13.0,-22.0,-100.00,West,277,5.0,13.0,64,0.00,,,0.00,1.000000,,2013-01-22 07:32:00,
2013-01-22 01:53:00,-14.0,-23.0,-100.00,WSW,249,3.0,7.0,64,0.00,,,0.00,1.000000,,2013-01-22 07:53:00,
2013-01-22 02:02:00,-14.0,-23.0,-100.00,WSW,249,3.0,7.0,64,0.00,,,0.00,1.000000,,2013-01-22 08:02:00,
2013-01-22 02:12:00,-14.0,-23.0,-100.00,WSW,249,3.0,7.0,64,0.00,,,0.00,1.000000,,2013-01-22 08:12:00,
2013-01-22 02:22:00,-14.0,-23.0,-100.00,WSW,249,3.0,7.0,64,0.00,,,0.00,1.000000,,2013-01-22 08:22:00,
2013-01-22 02:32:00,-14.0,-23.0,-100.00,WSW,249,3.0,7.0,64,0.00,,,0.00,1.000000,,2013-01-22 08:32:00,
2013-01-22 02:53:00,-15.0,-24.0,-100.00,WSW,254,4.0,10.0,63,0.00,,,0.00,1.000000,,2013-01-22 08:53:00,
2013-01-22 03:02:00,-15.0,-24.0,-100.00,WSW,254,4.0,10.0,63,0.00,,,0.00,1.000000,,2013-01-22 09:02:00,
2013-01-22 03:12:00,-15.0,-24.0,-100.00,WSW,254,4.0,10.0,63,0.00,,,0.00,1.000000,,2013-01-22 09:12:00,
2013-01-22 03:22:00,-15.0,-24.0,-100.00,WSW,254,4.0,10.0,63,0.00,,,0.00,1.000000,,2013-01-22 09:22:00,
2013-01-22 03:32:00,-15.0,-24.0,-100.00,WSW,254,4.0,10.0,63,0.00,,,0.00,1.000000,,2013-01-22 09:32:00,
2013-01-22 03:52:00,-16.0,-25.0,-100.00,West,261,4.0,9.0,63,0.00,,,0.00,1.000000,,2013-01-22 09:52:00,
2013-01-22 04:02:00,-16.0,-25.0,-100.00,West,261,4.0,9.0,63,0.00,,,0.00,1.000000,,2013-01-22 10:02:00,
2013-01-22 04:12:00,-16.0,-25.0,-100.00,West,261,4.0,9.0,63,0.00,,,0.00,1.000000,,2013-01-22 10:12:00,
2013-01-22 04:22:00,-16.0,-25.0,-100.00,West,261,4.0,9.0,63,0.00,,,0.00,1.000000,,2013-01-22 10:22:00,
2013-01-22 04:32:00,-16.0,-25.0,-100.00,West,261,4.0,9.0,63,0.00,,,0.00,1.000000,,2013-01-22 10:32:00,
2013-01-22 04:52:00,-16.0,-25.0,-100.00,WSW,252,5.0,11.0,63,0.00,,,0.00,1.000000,,2013-01-22 10:52:00,
2013-01-22 05:02:00,-16.0,-25.0,-100.00,WSW,252,5.0,11.0,63,0.00,,,0.00,1.000000,,2013-01-22 11:02:00,
2013-01-22 05:12:00,-16.0,-25.0,-100.00,WSW,252,5.0,11.0,63,0.00,,,0.00,1.000000,,2013-01-22 11:12:00,
2013-01-22 05:22:00,-16.0,-25.0,-100.00,WSW,252,5.0,11.0,63,0.00,,,0.00,1.000000,,2013-01-22 11:22:00,
2013-01-22 05:33:00,-16.0,-25.0,-100.00,WSW,252,5.0,11.0,63,0.00,,,0.00,1.000000,,2013-01-22 11:33:00,
2013-01-22 05:53:00,-16.0,-25.0,-100.00,West,269,5.0,10.0,63,0.00,,,0.00,1.000000,,2013-01-22 11:53:00,
2013-01-22 06:04:00,-16.0,-25.0,-100.00,West,269,5.0,10.0,63,0.00,,,0.00,1.000000,,2013-01-22 12:04:00,
2013-01-22 06:12:00,-16.0,-25.0,-100.00,West,269,5.0,10.0,63,0.00,,,0.00,1.000000,,2013-01-22 12:12:00,
2013-01-22 06:23:00,-16.0,-25.0,-100.00,West,269,5.0,10.0,63,0.00,,,0.00,1.000000,,2013-01-22 12:23:00,
2013-01-22 06:33:00,-16.0,-25.0,-100.00,West,269,5.0,10.0,63,0.00,,,0.00,1.000000,,2013-01-22 12:33:00,
2013-01-22 06:53:00,-16.0,-25.0,-100.00,West,266,5.0,12.0,62,0.00,,,0.00,1.000000,,2013-01-22 12:53:00,
2013-01-22 07:04:00,-16.0,-25.0,-100.00,West,266,5.0,12.0,62,0.00,,,0.00,1.000000,,2013-01-22 13:04:00,
2013-01-22 07:13:00,-16.0,-25.0,-100.00,West,266,5.0,12.0,62,0.00,,,0.00,1.000000,,2013-01-22 13:13:00,
2013-01-22 07:23:00,-16.0,-25.0,-100.00,West,266,5.0,12.0,62,0.00,,,0.00,1.000000,,2013-01-22 13:23:00,
2013-01-22 07:33:00,-16.0,-25.0,-100.00,West,266,5.0,12.0,62,0.00,,,0.00,1.000000,,2013-01-22 13:33:00,
2013-01-22 07:53:00,-17.0,-26.0,-100.00,West,272,4.0,10.0,62,0.00,,,0.00,2.000000,,2013-01-22 13:53:00,
2013-01-22 08:03:00,-17.0,-26.0,-100.00,West,272,4.0,10.0,62,0.00,,,0.00,2.000000,,2013-01-22 14:03:00,
2013-01-22 08:13:00,-17.0,-26.0,-100.00,West,272,4.0,10.0,62,0.00,,,0.00,2.000000,,2013-01-22 14:13:00,
2013-01-22 08:23:00,-17.0,-26.0,-100.00,West,272,4.0,10.0,62,0.00,,,0.00,2.000000,,2013-01-22 14:23:00,
2013-01-22 08:33:00,-17.0,-26.0,-100.00,West,272,4.0,10.0,62,0.00,,,0.00,2.000000,,2013-01-22 14:33:00,
2013-01-22 08:54:00,-15.0,-25.0,-100.00,WNW,286,4.0,11.0,60,0.00,,,0.00,31.000000,,2013-01-22 14:54:00,
2013-01-22 09:03:00,-15.0,-25.0,-100.00,WNW,286,4.0,11.0,60,0.00,,,0.00,31.000000,,2013-01-22 15:03:00,
2013-01-22 09:13:00,-15.0,-25.0,-100.00,WNW,286,4.0,11.0,60,0.00,,,0.00,31.000000,,2013-01-22 15:13:00,
2013-01-22 09:23:00,-15.0,-25.0,-100.00,WNW,286,4.0,11.0,60,0.00,,,0.00,31.000000,,2013-01-22 15:23:00,
2013-01-22 09:34:00,-15.0,-25.0,-100.00,WNW,286,4.0,11.0,60,0.00,,,0.00,31.000000,,2013-01-22 15:34:00,
2013-01-22 09:53:00,-11.0,-22.0,-100.00,WNW,300,5.0,11.0,56,0.00,,,0.00,133.000000,,2013-01-22 15:53:00,
2013-01-22 10:03:00,-11.0,-22.0,-100.00,WNW,300,5.0,11.0,56,0.00,,,0.00,133.000000,,2013-01-22 16:03:00,
2013-01-22 10:13:00,-11.0,-22.0,-100.00,WNW,300,5.0,11.0,56,0.00,,,0.00,133.000000,,2013-01-22 16:13:00,
2013-01-22 10:23:00,-11.0,-22.0,-100.00,WNW,300,5.0,11.0,56,0.00,,,0.00,133.000000,,2013-01-22 16:23:00,
2013-01-22 10:33:00,-11.0,-22.0,-100.00,WNW,300,5.0,11.0,56,0.00,,,0.00,133.000000,,2013-01-22 16:33:00,
2013-01-22 10:54:00,-6.0,-18.0,-100.00,NW,322,6.0,14.0,54,0.00,,,0.00,242.000000,,2013-01-22 16:54:00,
2013-01-22 11:03:00,-6.0,-18.0,-100.00,NW,322,6.0,14.0,54,0.00,,,0.00,242.000000,,2013-01-22 17:03:00,
2013-01-22 11:13:00,-6.0,-18.0,-100.00,NW,322,6.0,14.0,54,0.00,,,0.00,242.000000,,2013-01-22 17:13:00,
2013-01-22 11:23:00,-6.0,-18.0,-100.00,NW,322,6.0,14.0,54,0.00,,,0.00,242.000000,,2013-01-22 17:23:00,
2013-01-22 11:34:00,-6.0,-18.0,-100.00,NW,322,6.0,14.0,54,0.00,,,0.00,242.000000,,2013-01-22 17:34:00,
2013-01-22 11:54:00,-5.0,-17.0,-100.00,WNW,291,6.0,14.0,55,0.00,,,0.00,239.000000,,2013-01-22 17:54:00,
2013-01-22 12:04:00,-5.0,-17.0,-100.00,WNW,291,6.0,14.0,55,0.00,,,0.00,239.000000,,2013-01-22 18:04:00,
2013-01-22 12:13:00,-5.0,-17.0,-100.00,WNW,291,6.0,14.0,55,0.00,,,0.00,239.000000,,2013-01-22 18:13:00,
2013-01-22 12:23:00,-5.0,-17.0,-100.00,WNW,291,6.0,14.0,55,0.00,,,0.00,239.000000,,2013-01-22 18:23:00,
2013-01-22 12:33:00,-5.0,-17.0,-100.00,WNW,291,6.0,14.0,55,0.00,,,0.00,239.000000,,2013-01-22 18:33:00,
2013-01-22 13:03:00,-3.0,-15.0,-100.00,WNW,294,5.0,12.0,54,0.00,,,0.00,267.000000,,2013-01-22 19:03:00,
2013-01-22 13:13:00,-3.0,-15.0,-100.00,WNW,294,5.0,12.0,54,0.00,,,0.00,267.000000,,2013-01-22 19:13:00,
2013-01-22 13:23:00,-3.0,-15.0,-100.00,WNW,294,5.0,12.0,54,0.00,,,0.00,267.000000,,2013-01-22 19:23:00,
2013-01-22 13:33:00,-3.0,-15.0,-100.00,WNW,294,5.0,12.0,54,0.00,,,0.00,267.000000,,2013-01-22 19:33:00,
2013-01-22 13:54:00,0.0,-14.0,-100.00,NW,321,6.0,10.0,50,0.00,,,0.00,282.000000,,2013-01-22 19:54:00,
2013-01-22 14:03:00,0.0,-14.0,-100.00,NW,321,6.0,10.0,50,0.00,,,0.00,282.000000,,2013-01-22 20:03:00,
2013-01-22 14:13:00,0.0,-14.0,-100.00,NW,321,6.0,10.0,50,0.00,,,0.00,282.000000,,2013-01-22 20:13:00,
2013-01-22 14:23:00,0.0,-14.0,-100.00,NW,321,6.0,10.0,50,0.00,,,0.00,282.000000,,2013-01-22 20:23:00,
2013-01-22 14:33:00,0.0,-14.0,-100.00,NW,321,6.0,10.0,50,0.00,,,0.00,282.000000,,2013-01-22 20:33:00,
2013-01-22 14:53:00,0.0,-13.0,-100.00,NW,307,4.0,10.0,52,0.00,,,0.00,250.000000,,2013-01-22 20:53:00,
2013-01-22 15:03:00,0.0,-13.0,-100.00,NW,307,4.0,10.0,52,0.00,,,0.00,250.000000,,2013-01-22 21:03:00,
2013-01-22 15:13:00,0.0,-13.0,-100.00,NW,307,4.0,10.0,52,0.00,,,0.00,250.000000,,2013-01-22 21:13:00,
2013-01-22 15:23:00,0.0,-13.0,-100.00,NW,307,4.0,10.0,52,0.00,,,0.00,250.000000,,2013-01-22 21:23:00,
2013-01-22 15:33:00,0.0,-13.0,-100.00,NW,307,4.0,10.0,52,0.00,,,0.00,250.000000,,2013-01-22 21:33:00,
2013-01-22 15:53:00,0.0,-13.0,-100.00,West,268,4.0,7.0,54,0.00,,,0.00,135.000000,,2013-01-22 21:53:00,
2013-01-22 16:03:00,0.0,-13.0,-100.00,West,268,4.0,7.0,54,0.00,,,0.00,135.000000,,2013-01-22 22:03:00,
2013-01-22 16:13:00,0.0,-13.0,-100.00,West,268,4.0,7.0,54,0.00,,,0.00,135.000000,,2013-01-22 22:13:00,
2013-01-22 16:22:00,0.0,-13.0,-100.00,West,268,4.0,7.0,54,0.00,,,0.00,135.000000,,2013-01-22 22:22:00,
2013-01-22 16:32:00,0.0,-13.0,-100.00,West,268,4.0,7.0,54,0.00,,,0.00,135.000000,,2013-01-22 22:32:00,
2013-01-22 16:53:00,-2.0,-14.0,-100.00,WSW,239,3.0,7.0,55,0.00,,,0.00,55.000000,,2013-01-22 22:53:00,
2013-01-22 17:03:00,-2.0,-14.0,-100.00,WSW,239,3.0,7.0,55,0.00,,,0.00,55.000000,,2013-01-22 23:03:00,
2013-01-22 17:12:00,-2.0,-14.0,-100.00,WSW,239,3.0,7.0,55,0.00,,,0.00,55.000000,,2013-01-22 23:12:00,
2013-01-22 17:24:00,-2.0,-14.0,-100.00,WSW,239,3.0,7.0,55,0.00,,,0.00,55.000000,,2013-01-22 23:24:00,
2013-01-22 17:33:00,-2.0,-14.0,-100.00,WSW,239,3.0,7.0,55,0.00,,,0.00,55.000000,,2013-01-22 23:33:00,
2013-01-22 17:53:00,-5.0,-16.0,-100.00,SW,216,2.0,6.0,57,0.00,,,0.00,3.000000,,2013-01-22 23:53:00,
2013-01-22 18:03:00,-5.0,-16.0,-100.00,SW,216,2.0,6.0,57,0.00,,,0.00,3.000000,,2013-01-23 00:03:00,
2013-01-22 18:12:00,-5.0,-16.0,-100.00,SW,216,2.0,6.0,57,0.00,,,0.00,3.000000,,2013-01-23 00:12:00,
2013-01-22 18:22:00,-5.0,-16.0,-100.00,SW,216,2.0,6.0,57,0.00,,,0.00,3.000000,,2013-01-23 00:22:00,
2013-01-22 18:33:00,-5.0,-16.0,-100.00,SW,216,2.0,6.0,57,0.00,,,0.00,3.000000,,2013-01-23 00:33:00,
2013-01-22 18:52:00,-7.0,-16.0,-100.00,SSW,213,1.0,4.0,65,0.00,,,0.00,1.000000,,2013-01-23 00:52:00,
2013-01-22 19:03:00,-7.0,-16.0,-100.00,SSW,213,1.0,4.0,65,0.00,,,0.00,1.000000,,2013-01-23 01:03:00,
2013-01-22 19:13:00,-7.0,-16.0,-100.00,SSW,213,1.0,4.0,65,0.00,,,0.00,1.000000,,2013-01-23 01:13:00,
2013-01-22 19:23:00,-7.0,-16.0,-100.00,SSW,213,1.0,4.0,65,0.00,,,0.00,1.000000,,2013-01-23 01:23:00,
2013-01-22 19:33:00,-7.0,-16.0,-100.00,SSW,213,1.0,4.0,65,0.00,,,0.00,1.000000,,2013-01-23 01:33:00,
2013-01-22 19:53:00,-8.0,-17.0,-100.00,SSW,209,2.0,4.0,65,0.00,,,0.00,1.000000,,2013-01-23 01:53:00,
2013-01-22 20:03:00,-8.0,-17.0,-100.00,SSW,209,2.0,4.0,65,0.00,,,0.00,1.000000,,2013-01-23 02:03:00,
2013-01-22 20:12:00,-8.0,-17.0,-100.00,SSW,209,2.0,4.0,65,0.00,,,0.00,1.000000,,2013-01-23 02:12:00,
2013-01-22 20:23:00,-8.0,-17.0,-100.00,SSW,209,2.0,4.0,65,0.00,,,0.00,1.000000,,2013-01-23 02:23:00,
2013-01-22 20:33:00,-8.0,-17.0,-100.00,SSW,209,2.0,4.0,65,0.00,,,0.00,1.000000,,2013-01-23 02:33:00,
2013-01-22 20:53:00,-11.0,-19.0,-100.00,SW,231,3.0,5.0,67,0.00,,,0.00,1.000000,,2013-01-23 02:53:00,
2013-01-22 21:03:00,-11.0,-19.0,-100.00,SW,231,3.0,5.0,67,0.00,,,0.00,1.000000,,2013-01-23 03:03:00,
2013-01-22 21:13:00,-11.0,-19.0,-100.00,SW,231,3.0,5.0,67,0.00,,,0.00,1.000000,,2013-01-23 03:13:00,
2013-01-22 21:23:00,-11.0,-19.0,-100.00,SW,231,3.0,5.0,67,0.00,,,0.00,1.000000,,2013-01-23 03:23:00,
2013-01-22 21:33:00,-11.0,-19.0,-100.00,SW,231,3.0,5.0,67,0.00,,,0.00,1.000000,,2013-01-23 03:33:00,
2013-01-22 21:53:00,-10.0,-18.0,-100.00,SW,236,3.0,6.0,65,0.00,,,0.00,1.000000,,2013-01-23 03:53:00,
2013-01-22 22:03:00,-10.0,-18.0,-100.00,SW,236,3.0,6.0,65,0.00,,,0.00,1.000000,,2013-01-23 04:03:00,
2013-01-22 22:12:00,-10.0,-18.0,-100.00,SW,236,3.0,6.0,65,0.00,,,0.00,1.000000,,2013-01-23 04:12:00,
2013-01-22 22:22:00,-10.0,-18.0,-100.00,SW,236,3.0,6.0,65,0.00,,,0.00,1.000000,,2013-01-23 04:22:00,
2013-01-22 22:32:00,-10.0,-18.0,-100.00,SW,236,3.0,6.0,65,0.00,,,0.00,1.000000,,2013-01-23 04:32:00,
2013-01-22 22:53:00,-9.0,-18.0,-100.00,SW,222,2.0,5.0,64,0.00,,,0.00,1.000000,,2013-01-23 04:53:00,
2013-01-22 23:03:00,-9.0,-18.0,-100.00,SW,222,2.0,5.0,64,0.00,,,0.00,1.000000,,2013-01-23 05:03:00,
2013-01-22 23:12:00,-9.0,-18.0,-100.00,SW,222,2.0,5.0,64,0.00,,,0.00,1.000000,,2013-01-23 05:12:00,
2013-01-22 23:22:00,-9.0,-18.0,-100.00,SW,222,2.0,5.0,64,0.00,,,0.00,1.000000,,2013-01-23 05:22:00,
2013-01-22 23:33:00,-9.0,-18.0,-100.00,SW,222,2.0,5.0,64,0.00,,,0.00,1.000000,,2013-01-23 05:33:00,